User: anonymous   Login
Location: Strada George Coșbuc
(47.6577°N, 23.5639°E)
Time: 11:01:10
(UTC+03:00)
Language:

ISS - Orbit

View from above orbital plane
View from above orbital plane
View from above satellite
View from above satellite

Ground track
Ground track

The orbit data is extracted from the following two-line orbital elements,

1 25544U 98067A   21169.21312520  .00001377  00000-0  33159-4 0  9998
2 25544  51.6449 337.6500 0003500 104.2716  67.7854 15.48996804288755
Epoch (UTC): 18 June 2021 05:06:54
Eccentricity: 0.0003500
inclination: 51.6449°
perigee height: 417 km
apogee height: 422 km
right ascension of ascending node: 337.6500°
argument of perigee: 104.2716°
revolutions per day: 15.48996804
mean anomaly at epoch: 67.7854°
orbit number at epoch: 28875

The dashed part of the orbit path shows where the satellite is in the earth's shadow,  

DLR